Kahului, HI

11:57 AM HST on February 20, 2018 (GMT -1000)
Kahului

Weather History for PHOG - August, 2013

Change the Weather History Date:

Tuesday, August 27, 2013

  Actual Average Record
Temperature  
Mean Temperature 82 °F 80 °F  
Max Temperature 88 °F 88 °F 92 °F (1952)
Min Temperature 75 °F 71 °F 62 °F (1953)
Degree Days  
Heating Degree Days 0 0  
Month to date heating degree days 0 0  
Since 1 June heating degree days 0 0  
Since 1 July heating degree days 0 0  
Cooling Degree Days 17 15  
Month to date cooling degree days 428 405  
Year to date cooling degree days 2730 2491  
Since 1 June cooling degree days 1346 1232  
Growing Degree Days 31 (Base 50)    
Moisture  
Dew Point 68 °F    
Average Humidity 66    
Maximum Humidity 82    
Minimum Humidity 50    
Precipitation  
Precipitation 0.00 in 0.02 in 0.09 in (2016)
Month to date precipitation 0.53 0.45  
Year to date precipitation 8.65 10.65  
Snow  
Snow 0.00 in - - ()
Month to date snowfall 0.0  
Since 1 June snowfall 0.0  
Since 1 July snowfall 0.0  
Snow Depth 0.00 in    
Sea Level Pressure  
Sea Level Pressure 30.07 in    
Wind  
Wind Speed 18 mph (NE)    
Max Wind Speed 25 mph    
Max Gust Speed 32 mph    
Visibility 10 miles    
Events      
T = Trace of Precipitation, MM = Missing Value Source: NWS Daily Summary

Daily Weather History Graph

Daily Weather History Graph

Search for Another Location

Airport or City:

Trip Planner

Search our weather history database for the weather conditions in past years. The results will help you decide how hot, cold, wet, or windy it might be!

Date:

Astronomy

Aug. 27, 2013 Rise Set
Actual Time 6:08 AM HST 6:45 PM HST
Civil Twilight 5:45 AM HST 7:08 PM HST
Nautical Twilight 5:19 AM HST 7:34 PM HST
Astronomical Twilight 4:52 AM HST 8:01 PM HST
Moon 11:44 PM HST (8/27) 12:20 PM HST (8/27)
Length of Visible Light 13h 22m
Length of Day
12h 37m
Waning Gibbous, 55% of the Moon is Illuminated
Aug 27
Waning Gibbous
Aug 27
Last Quarter
Sep 5
New
Sep 12
First Quarter
Sep 19
Full

Hourly Weather History & Observations

Time (HST) Temp. Heat Index Dew Point Humidity Pressure Visibility Wind Dir Wind Speed Gust Speed Precip Events Conditions
12:54 AM 77.0 °F - 69.1 °F 76% 30.09 in 10.0 mi NE 23.0 mph 28.8 mph N/A   Clear
1:54 AM 75.9 °F - 69.1 °F 79% 30.09 in 10.0 mi NE 12.7 mph 25.3 mph N/A   Clear
2:54 AM 75.9 °F - 69.1 °F 79% 30.08 in 10.0 mi NE 15.0 mph - N/A   Clear
3:54 AM 75.9 °F - 68.0 °F 76% 30.09 in 10.0 mi NE 13.8 mph - N/A   Clear
4:54 AM 75.9 °F - 68.0 °F 76% 30.10 in 10.0 mi NE 15.0 mph - N/A   Clear
5:54 AM 75.0 °F - 66.9 °F 76% 30.10 in 10.0 mi NE 11.5 mph - N/A   Clear
6:54 AM 75.9 °F - 64.9 °F 69% 30.11 in 10.0 mi NE 12.7 mph - N/A   Clear
7:54 AM 81.0 °F 83.8 °F 68.0 °F 65% 30.12 in 10.0 mi NE 16.1 mph - N/A   Clear
8:54 AM 82.0 °F 84.5 °F 66.9 °F 60% 30.12 in 10.0 mi ENE 12.7 mph 26.5 mph N/A   Partly Cloudy
9:54 AM 84.0 °F 85.8 °F 64.9 °F 53% 30.12 in 10.0 mi NE 18.4 mph 28.8 mph N/A   Partly Cloudy
10:54 AM 86.0 °F 88.8 °F 66.9 °F 53% 30.11 in 10.0 mi NE 23.0 mph - N/A   Partly Cloudy
11:54 AM 87.1 °F 89.2 °F 66.0 °F 49% 30.08 in 10.0 mi NE 23.0 mph 28.8 mph N/A   Partly Cloudy
12:54 PM 88.0 °F 90.7 °F 66.9 °F 49% 30.05 in 10.0 mi NE 24.2 mph 32.2 mph N/A   Partly Cloudy
1:54 PM 87.1 °F 90.6 °F 68.0 °F 53% 30.04 in 10.0 mi NNE 25.3 mph - N/A   Partly Cloudy
2:54 PM 86.0 °F 90.7 °F 70.0 °F 59% 30.03 in 10.0 mi NNE 23.0 mph - N/A   Partly Cloudy
3:54 PM 84.9 °F 89.4 °F 70.0 °F 61% 30.02 in 10.0 mi NNE 21.9 mph 27.6 mph N/A   Scattered Clouds
4:54 PM 84.0 °F 88.4 °F 70.0 °F 63% 30.03 in 10.0 mi NNE 19.6 mph - N/A   Scattered Clouds
5:54 PM 81.0 °F 84.4 °F 70.0 °F 69% 30.03 in 10.0 mi NE 17.3 mph - N/A   Scattered Clouds
6:54 PM 80.1 °F 83.2 °F 70.0 °F 71% 30.04 in 10.0 mi NE 16.1 mph - N/A   Partly Cloudy
7:54 PM 79.0 °F - 70.0 °F 74% 30.06 in 10.0 mi NE 10.4 mph - N/A   Partly Cloudy
8:54 PM 78.1 °F - 70.0 °F 76% 30.07 in 10.0 mi NE 9.2 mph - N/A   Partly Cloudy
9:54 PM 77.0 °F - 70.0 °F 79% 30.08 in 10.0 mi NE 5.8 mph - N/A   Scattered Clouds
10:54 PM 77.0 °F - 70.0 °F 79% 30.07 in 10.0 mi NE 9.2 mph - N/A   Clear
11:54 PM 75.9 °F - 70.0 °F 82% 30.06 in 10.0 mi NE 8.1 mph - N/A   Clear